This is the latest recevied weather packets stored in our database for station/object AE5HO. If no packets are shown the sender has not sent any weather packets the latest 10 day(s).
| Time | Temp. | Humidity | Pressure | Rain* | Wind** | Luminosity | Snow |
|---|---|---|---|---|---|---|---|
| 1787849491 | 35° C | 55% | 1017.2 hPa | 0 mm | - | 555 W/m² | - |
| 1787849190 | 35° C | 57% | 1017.3 hPa | 0 mm | - | 569 W/m² | - |
| 1787848889 | 33.89° C | 57% | 1017.1 hPa | 0 mm | - | 613 W/m² | - |
| 1787848584 | 33.89° C | 58% | 1017 hPa | 0 mm | - | 598 W/m² | - |
| 1787848284 | 33.89° C | 58% | 1017.1 hPa | 0 mm | - | 505 W/m² | - |
| 1787847985 | 33.33° C | 59% | 1017 hPa | 0 mm | - | 614 W/m² | - |
| 1787847684 | 33.33° C | 60% | 1016.9 hPa | 0 mm | - | 581 W/m² | - |
| 1787847379 | 33.89° C | 59% | 1017 hPa | 0 mm | - | 608 W/m² | - |
| 1787847075 | 32.78° C | 61% | 1016.8 hPa | 0 mm | - | 559 W/m² | - |
| 1787846771 | 32.78° C | 62% | 1017 hPa | 0 mm | - | 588 W/m² | - |
| 1787846466 | 32.22° C | 63% | 1017.1 hPa | 0 mm | - | 543 W/m² | - |
| 1787846161 | 32.78° C | 63% | 1017 hPa | 0 mm | - | 561 W/m² | - |
| 1787845857 | 32.78° C | 63% | 1016.8 hPa | 0 mm | - | 570 W/m² | - |
| 1787845552 | 32.78° C | 64% | 1017 hPa | 0 mm | - | 499 W/m² | - |
| 1787845247 | 32.22° C | 65% | 1017 hPa | 0 mm | - | 469 W/m² | - |
| 1787844944 | 32.22° C | 65% | 1016.8 hPa | 0 mm | - | 489 W/m² | - |
| 1787844643 | 31.67° C | 66% | 1017 hPa | 0 mm | - | 456 W/m² | - |
| 1787844344 | 31.67° C | 67% | 1016.8 hPa | 0 mm | - | 279 W/m² | - |
| 1787844043 | 30.56° C | 69% | 1016.8 hPa | 0 mm | - | 132 W/m² | - |
| 1787843738 | 30° C | 70% | 1016.7 hPa | 0 mm | - | 229 W/m² | - |
| 1787843433 | 30° C | 70% | 1016.6 hPa | 0 mm | - | 199 W/m² | - |
| 1787843130 | 30.56° C | 70% | 1016.5 hPa | 0 mm | - | 70 W/m² | - |
| 1787842824 | 30° C | 71% | 1016.5 hPa | 0 mm | - | 69 W/m² | - |
| 1787842519 | 30° C | 71% | 1016.6 hPa | 0 mm | - | 67 W/m² | - |
| 1787842218 | 30° C | 72% | 1016.8 hPa | 0 mm | - | 65 W/m² | - |
* Rain latest hour (hover to see other rain measurements)
** Current wind speed in m/s (hover to see current wind gust speed)